Date,TemperatureHighF,TemperatureAvgF,TemperatureLowF,DewpointHighF,DewpointAvgF,DewpointLowF,HumidityHigh,HumidityAvg,HumidityLow,PressureMaxIn,PressureMinIn,WindSpeedMaxMPH,WindSpeedAvgMPH,GustSpeedMaxMPH,PrecipitationSumIn
2013-7-1,72.5,47.7,66.1,71.0,16.8,-99.9,100,68,93,30.07,29.93,6,-304,7,0.04
2013-7-2,73.9,56.2,67.3,72.0,35.2,-99.9,99,77,89,30.18,30.08,3,-199,7,0.00
2013-7-3,78.9,72.1,67.3,74.0,70.2,67.0,99,94,84,30.23,30.16,4,1,5,0.00
2013-7-4,81.4,59.3,68.7,76.0,36.2,-99.9,99,72,79,30.22,30.13,4,-207,10,0.00
2013-7-5,85.0,68.4,70.5,76.0,54.9,-99.9,97,79,71,30.17,30.07,4,-99,9,0.00
2013-7-6,87.9,65.6,70.7,77.0,44.6,-99.9,96,71,65,30.09,29.97,6,-167,13,0.00
2013-7-7,86.8,71.2,69.9,78.0,58.8,-99.9,97,79,71,30.02,29.89,10,-82,11,0.00
2013-7-8,83.9,64.8,70.2,73.0,45.7,-99.9,98,73,68,30.01,29.91,5,-148,14,0.00
2013-7-9,72.6,58.0,67.4,71.0,38.5,-99.9,100,79,93,30.06,29.98,5,-169,7,0.00
2013-7-10,79.9,64.1,68.7,75.0,49.7,-99.9,100,84,83,30.02,29.79,6,-113,8,0.00
2013-7-11,74.4,62.1,70.1,73.0,47.4,-99.9,99,83,90,29.88,29.78,3,-137,7,0.01
2013-7-12,77.5,51.4,67.7,71.0,19.2,-99.9,99,63,79,30.12,29.87,8,-265,10,0.00
2013-7-13,71.1,49.6,66.4,70.0,19.3,-99.9,100,69,94,30.28,30.12,8,-279,9,0.25
2013-7-14,84.4,63.0,68.8,77.0,44.2,-99.9,100,76,73,30.29,30.19,4,-165,9,0.01
2013-7-15,89.0,79.9,72.1,78.0,74.0,71.0,97,83,64,30.19,30.08,6,2,10,0.00
2013-7-16,90.1,73.8,71.8,78.0,58.5,-99.9,97,72,63,30.12,30.07,3,-84,6,0.00
2013-7-17,82.3,67.8,71.4,76.0,52.9,-99.9,98,78,76,30.16,30.02,3,-114,4,0.00
2013-7-18,87.8,70.0,70.1,78.0,54.2,-99.9,100,76,71,30.03,29.93,4,-114,6,0.00
2013-7-19,89.5,73.4,71.9,80.0,62.0,-99.9,100,82,69,29.93,29.75,6,-60,10,0.00
2013-7-20,87.0,68.5,71.8,76.0,52.0,-99.9,97,75,67,29.80,29.67,5,-123,11,0.00
2013-7-21,76.3,63.8,68.7,72.0,48.9,-99.9,97,77,75,29.95,29.80,4,-114,5,0.16
2013-7-22,74.3,60.7,67.7,71.0,40.0,-99.9,100,79,88,29.96,29.84,8,-138,8,0.00
2013-7-23,80.2,57.3,68.8,76.0,34.3,-99.9,100,74,84,29.82,29.54,5,-216,7,0.10
2013-7-24,81.5,65.6,68.5,76.0,49.2,-99.9,99,76,71,29.87,29.56,4,-124,11,0.01
2013-7-25,70.7,59.2,60.9,63.0,46.5,-99.9,95,78,73,30.02,29.87,6,-81,10,0.06
2013-7-26,70.9,54.9,61.3,67.0,35.6,-99.9,97,76,85,30.02,29.91,5,-163,10,0.08
2013-7-27,77.7,67.1,66.8,72.0,58.2,-99.9,99,85,80,30.05,29.95,5,-61,7,0.00
2013-7-28,77.6,63.4,67.3,73.0,50.1,-99.9,98,82,82,29.98,29.92,4,-114,5,0.00
2013-7-29,78.2,68.7,67.7,75.0,61.9,-99.9,100,89,83,30.02,29.93,3,-51,4,0.00
2013-7-30,79.0,65.4,61.6,69.0,48.8,-99.9,96,69,58,30.09,30.02,9,-88,12,0.00
2013-7-31,77.8,64.8,62.1,68.0,51.0,-99.9,96,75,67,30.11,30.03,2,-84,5,0.00